TimeEDT,TemperatureF,Dew PointF,Humidity,Sea Level PressureIn,VisibilityMPH,Wind Direction,Wind SpeedMPH,Gust SpeedMPH,PrecipitationIn,Events,Conditions,WindDirDegrees,DateUTC
12:53 AM,57.0,51.1,81,29.53,10.0,WSW,26.5,39.1,0.00,Rain,Light Rain,240,2012-10-15 04:53:00
1:53 AM,55.0,46.9,74,29.58,10.0,WSW,24.2,31.1,0.00,,Overcast,250,2012-10-15 05:53:00
2:25 AM,55.4,46.4,72,29.60,10.0,WSW,13.8,27.6,N/A,,Overcast,250,2012-10-15 06:25:00
2:53 AM,54.0,46.0,75,29.62,10.0,WSW,19.6,26.5,N/A,,Overcast,250,2012-10-15 06:53:00
3:53 AM,53.1,46.0,77,29.63,10.0,WSW,17.3,25.3,N/A,,Overcast,240,2012-10-15 07:53:00
4:27 AM,51.8,46.4,82,29.65,10.0,WSW,12.7,19.6,0.00,,Mostly Cloudy,250,2012-10-15 08:27:00
4:53 AM,52.0,46.0,80,29.65,10.0,WSW,13.8,23.0,0.00,,Overcast,240,2012-10-15 08:53:00
5:01 AM,51.8,44.6,76,29.65,10.0,WSW,20.7,26.5,N/A,,Overcast,240,2012-10-15 09:01:00
5:53 AM,52.0,43.0,71,29.68,10.0,WSW,16.1,24.2,N/A,,Overcast,250,2012-10-15 09:53:00
6:53 AM,51.1,42.1,71,29.70,10.0,WSW,19.6,28.8,N/A,,Overcast,250,2012-10-15 10:53:00
7:53 AM,50.0,41.0,71,29.72,10.0,WSW,16.1,-,N/A,,Mostly Cloudy,250,2012-10-15 11:53:00
8:53 AM,51.1,41.0,68,29.73,10.0,West,17.3,-,N/A,,Mostly Cloudy,260,2012-10-15 12:53:00
9:26 AM,51.8,41.0,67,29.74,10.0,WSW,15.0,-,N/A,,Overcast,250,2012-10-15 13:26:00
9:53 AM,50.0,39.9,68,29.75,10.0,West,20.7,25.3,N/A,,Overcast,270,2012-10-15 13:53:00
10:22 AM,51.8,39.2,62,29.76,10.0,West,21.9,28.8,N/A,,Overcast,260,2012-10-15 14:22:00
10:53 AM,52.0,39.9,63,29.76,10.0,West,16.1,-,N/A,,Overcast,270,2012-10-15 14:53:00
11:53 AM,52.0,39.0,61,29.78,10.0,West,18.4,26.5,N/A,,Overcast,270,2012-10-15 15:53:00
12:53 PM,52.0,39.0,61,29.81,10.0,West,15.0,25.3,N/A,,Overcast,280,2012-10-15 16:53:00
1:53 PM,52.0,39.0,61,29.81,10.0,West,18.4,26.5,N/A,,Overcast,280,2012-10-15 17:53:00
2:53 PM,52.0,39.0,61,29.82,10.0,West,18.4,25.3,N/A,,Overcast,270,2012-10-15 18:53:00
3:53 PM,52.0,39.9,63,29.84,10.0,WNW,12.7,23.0,N/A,,Overcast,290,2012-10-15 19:53:00
4:53 PM,50.0,39.9,68,29.86,10.0,West,18.4,-,N/A,,Overcast,280,2012-10-15 20:53:00
5:53 PM,50.0,41.0,71,29.89,10.0,West,13.8,-,N/A,,Overcast,280,2012-10-15 21:53:00
6:22 PM,48.2,39.2,71,29.88,10.0,West,13.8,-,N/A,,Overcast,280,2012-10-15 22:22:00
6:53 PM,48.9,41.0,74,29.89,10.0,West,11.5,-,N/A,,Overcast,280,2012-10-15 22:53:00
7:53 PM,48.0,41.0,77,29.91,10.0,West,6.9,-,N/A,,Overcast,270,2012-10-15 23:53:00
8:53 PM,48.0,39.9,74,29.93,10.0,West,11.5,-,N/A,,Overcast,280,2012-10-16 00:53:00
9:53 PM,48.0,39.9,74,29.94,10.0,West,6.9,-,N/A,,Mostly Cloudy,280,2012-10-16 01:53:00
10:53 PM,48.0,39.9,74,29.94,10.0,WNW,8.1,-,N/A,,Overcast,290,2012-10-16 02:53:00
11:53 PM,48.0,39.0,71,29.95,10.0,WNW,6.9,-,N/A,,Overcast,290,2012-10-16 03:53:00